Погода в Лунино

Россия / Пензенская область     53°35′43″N   45°13′39″E
темп.,
°C
ветер,
м/с
пор.,
м/с
влажн.,
%
обл.,
%
осадки,
мм/ч
давл.,
гПа
погр.,
м
15 мая, сб
сб1500:00+17юв3118594 0.0 1016194
03:00+18ююв4146167 0.0 1016369
06:00+17ююв5156154 0.0 1016398
09:00+22ю61448100 0.0 1017718
12:00+26ю61339100 0.0 10171247
15:00+26ю612433 0.0 10161297
18:00+23ююв51155100 0.0 1016460
21:00+17юв347032 0.0 101664
16 мая, вс
вс1600:00+15ююв236865 0.0 101640
03:00+14ююв22697 0.0 101629
06:00+15ю247161 0.0 1016128
09:00+22ю3552100 0.0 1016429
12:00+26ю5839100 0.0 10171179
15:00+26ююз4842100 0.0 10161526
18:00+23ю2361100 0.0 101667
21:00+18ююв1272100 0.0 101611
17 мая, пн
пн1700:00+16вюв1173100 0.0 101711
03:00+16юв1165100 0.0 101711
06:00+17юв2268100 0.0 101763
09:00+24ююв4746100 0.0 1017475
12:00+27ююв51033100 0.0 10172013
15:00+27ю5739100 0.0 10171471
18:00+24юв2358100 0.0 101647
21:00+18вюв22609 0.0 101625
18 мая, вт
вт1800:00+16юв226239 0.0 101619
03:00+15вюв2262100 0.0 101534
06:00+17вюв31161100 0.0 1015232
09:00+23ююв594680 0.0 1015440
12:00+27ююв583465 0.0 10151286
15:00+28юв583757 0.0 10141193
18:00+24юв410555 0.0 1013310
21:00+19юв4125864 0.0 1013173
19 мая, ср
ср1900:00+19юв41544100 0.0 1013287
03:00+19юв61841100 0.0 1013477
06:00+19ююв41352100 0.0 1013360
09:00+22ю4105398 0.0 1013583
12:00+22ю495499 0.0 1013648
15:00+27ююз5134045 0.0 10132355
18:00+23юз376598 0.1 1013232
21:00+18юз228097 0.1 101420